Location: Fl�singen
(50.3824°N, 18.4825°E)
Time: 06:56:03
(UTC+00:00)

Daily predictions for brighter satellites

Satellite Brightness Start Highest point End
(mag) Time Altitude Azimuth Time Altitude Azimuth Time Altitude Azimuth
BREEZE-M (TANK) 4.4 16:57:14 10° W 17:01:34 80° S 17:21:02 10° ESE
Cosmos 1842 3.2 17:15:59 10° N 17:19:53 76° E 17:23:45 10° SSE
ISS -1.8 17:18:32 10° S 17:20:33 15° SE 17:22:33 10° ESE
NOSS 8 (F) 4.1 17:19:10 10° SW 17:22:21 69° SE 17:25:21 10° NE
ARGOS 3.5 17:17:54 10° SE 17:23:00 47° ENE 17:28:08 10° N
CZ-2C R/B 3.9 17:19:34 10° NE 17:23:40 21° E 17:27:47 10° SE
Cosmos 990 Rocket 3.9 17:20:43 10° SSW 17:25:50 76° ESE 17:31:00 10° NNE
Meteor 2-11 Rocket 4.5 17:20:06 10° S 17:26:11 68° E 17:32:19 10° NNE
Cosmos 1025 Rocket 3.9 17:23:31 10° N 17:27:23 30° ENE 17:31:15 10° SE
Cosmos 1782 Rocket 3.6 17:25:18 10° S 17:29:39 61° E 17:34:03 10° NNE
Cosmos 2233 Rocket 4.0 17:24:00 10° S 17:30:14 86° E 17:36:28 10° N
Cosmos 1908 Rocket 3.8 17:27:22 10° SSW 17:31:43 75° WNW 17:36:08 10° N
Cosmos 1707 3.2 17:28:52 10° N 17:32:32 40° ENE 17:36:10 10° SE
Cosmos 1743 4.1 17:30:15 10° SSW 17:33:56 44° WNW 17:37:38 10° N
NOSS 3-2 (A) 4.2 17:27:17 10° NW 17:34:27 62° NE 17:42:38 10° ESE
NOSS 2-2 (C) 4.0 17:33:39 10° S 17:36:43 28° ESE 17:40:02 10° ENE
Ariane Rocket 3.5 17:34:33 10° SE 17:39:16 40° ENE 17:43:59 10° N
CZ-2C R/B 3.3 17:34:04 10° SSE 17:39:21 85° WSW 17:44:58 10° NNW
Cosmos 2263 Rocket 2.1 17:34:41 10° SSW 17:40:14 79° ESE 17:45:52 10° NNE
CREW DRAGON DEMO-1 DEB 3.0 17:40:32 10° W 17:43:33 66° N 17:46:07 13° E
SJ-6B 3.6 17:40:47 10° SE 17:44:02 29° ENE 17:47:20 10° N
USA 186 2.5 17:41:52 10° SE 17:44:45 34° ENE 17:47:45 10° N
Meteor 2-9 Rocket 4.3 17:39:45 10° S 17:45:37 86° E 17:51:26 10° NNE
Cosmos 1844 Rocket 3.7 17:43:13 10° SSE 17:47:28 23° ESE 17:51:44 10° NE
FREGAT/IRIS 3.5 17:49:42 18° ESE 17:50:49 23° ENE 17:53:00 10° NNE
Cosmos 1975 Rocket 3.3 17:46:43 10° NNW 17:51:04 72° W 17:55:21 10° S
HJ-1C 3.7 17:49:07 10° S 17:52:23 69° WSW 17:55:42 10° NNW
Cosmos 2227 4.4 17:47:42 10° SSW 17:53:27 81° WNW 17:59:12 10° NNE
COSMO-SKYMED 1 4.4 17:50:37 10° N 17:54:35 35° WNW 17:58:32 10° SW
Cosmos 1943 4.1 17:49:37 10° NW 17:55:04 51° WSW 18:00:31 10° S
Cosmos 1898 Rocket 3.8 17:51:02 10° SSW 17:56:12 71° WNW 18:01:24 10° NNE
USA 234 4.2 17:52:03 10° ENE 17:57:06 23° SE 18:02:08 10° S
ATLAS CENTAUR R/B 3.8 17:54:57 10° WNW 17:57:30 17° NNW 17:59:59 10° NNE
USA 102 3.3 17:55:01 10° SSE 17:53:50 - SSE 18:00:29 31° SE
Cosmos 1867 3.9 17:56:58 10° NW 18:02:24 67° SW 18:07:48 10° SSE
Cosmos 1833 Rocket 4.3 18:02:19 10° NNW 18:06:33 21° NE 18:09:44 14° ENE
MetOp-A 4.3 18:01:52 10° SE 18:07:04 54° ENE 18:12:18 10° N
Resurs 01 Rocket 2.9 18:05:19 18° E 18:07:09 24° ENE 18:10:42 10° N
NOSS 3-2 (C) 4.1 18:02:03 10° NW 18:09:15 64° NE 18:15:36 18° ESE
Lacrosse 5 rocket 2.6 18:05:15 10° W 18:09:21 41° NNW 18:13:38 10° ENE
Cosmos 372 Rocket 4.0 18:05:31 10° S 18:10:40 61° ESE 18:15:50 10° NNE
IRS-1A Rocket 4.4 18:05:44 10° SSE 18:11:36 74° ENE 18:17:28 10° NNW
Sich 1 Rocket 3.7 18:07:44 10° S 18:12:14 84° W 18:16:49 10° N
MOS 1 Rocket 3.1 18:08:51 10° NNE 18:13:24 89° WSW 18:17:43 10° SSW
Meteor 1-12 Rocket 4.2 18:10:04 10° S 18:15:57 73° E 18:21:45 10° NNE
DMSP B5D2-2 4.3 18:13:15 10° NNE 18:18:21 45° E 18:23:23 10° S
OBJECT-B 1.4 18:19:21 32° ESE 18:20:08 38° ENE 18:23:11 10° N
Cosmos 2150 Rocket 4.2 18:15:31 10° S 18:20:40 49° ESE 18:25:55 10° NNE
SJ 16-02 3.9 18:17:16 10° WSW 18:20:50 24° NW 18:24:25 10° N
Cosmos 1626 3.5 18:18:32 10° NNE 18:21:28 21° ENE 18:21:30 21° ENE
Cosmos 1513 Rocket 4.5 18:17:12 10° S 18:23:29 87° E 18:29:41 10° N
Cosmos 2285 Rocket 4.5 18:18:34 10° SSE 18:24:11 35° E 18:29:52 10° NE
ARIANE 5 R/B 4.0 18:23:29 20° ENE 18:24:13 21° ENE 18:27:28 10° NNE
Cosmos 1937 Rocket 4.2 18:19:12 10° SW 18:24:22 58° WNW 18:29:32 10° NNE
Cosmos 1125 Rocket 3.9 18:23:52 10° S 18:28:46 39° ESE 18:33:41 10° NE
Okean 2 Rocket 3.1 18:26:17 10° S 18:30:47 84° W 18:35:18 10° N
Abrixas rocket 1.9 18:28:43 10° W 18:31:32 58° S 18:31:44 56° SSE
Cosmos 1464 Rocket 4.0 18:26:18 10° S 18:32:27 85° W 18:38:40 10° N
SL-08 RB Rocket 4.1 18:28:02 10° S 18:32:36 64° WSW 18:37:09 10° NNW
Okean 1 Rocket 3.6 18:31:11 29° SE 18:32:42 38° E 18:36:51 10° NNE
NOSS 2-2 (E) 3.3 18:30:04 10° SW 18:33:36 74° NW 18:37:47 10° NE
Cosmos 1092 Rocket 4.0 18:30:37 10° N 18:36:44 61° ENE 18:40:57 21° SSE
Meteor 2-13 Rocket 4.4 18:31:32 10° N 18:37:41 65° ENE 18:42:01 20° SSE
ATLAS 2AS CENTAUR R/B 3.7 18:32:59 10° SSE 18:39:23 28° ESE 18:45:44 10° ENE
Cosmos 1300 Rocket 3.8 18:35:02 10° SSW 18:39:25 71° WNW 18:43:52 10° N
Meteor 2-5 Rocket 3.8 18:34:30 10° N 18:40:03 56° ENE 18:42:58 28° SE
NOSS 2-2 (D) 3.2 18:38:45 10° SW 18:42:16 76° NW 18:46:23 10° NE
Cosmos 2026 Rocket 4.2 18:36:46 10° N 18:43:00 54° ENE 18:46:18 28° SE
Resurs 1-3 3.5 18:41:32 32° SSE 18:43:28 69° ENE 18:47:52 10° N
CENTAUR R/B 3.1 18:38:40 10° NW 18:46:37 85° NE 18:51:58 27° SE
BREEZE-M R/B 3.7 18:39:12 10° WSW 18:48:12 53° SSE 18:48:53 45° SE
Cosmos 2082 Rocket 3.6 18:44:10 10° NNW 18:48:38 23° NE 18:50:26 20° ENE
Cosmos 1805 3.3 18:49:00 52° ESE 18:49:13 53° E 18:53:04 10° NNE
H-2A R/B 3.9 18:45:40 10° SSW 18:49:57 28° W 18:54:20 10° NNW
Cosmos 1674 2.7 18:46:50 10° NNW 18:50:42 82° W 18:52:10 37° S
ATLAS 3B R/B 3.2 18:47:10 10° NW 18:53:42 47° NNE 18:56:56 29° E
Cosmos 1048 Rocket 4.4 18:49:09 10° NNW 18:54:23 62° WSW 18:58:02 20° S
Cosmos 1536 Rocket 4.3 18:50:48 10° NNW 18:55:08 53° W 18:58:59 13° S
Exosat Rocket 3.5 18:50:13 10° S 18:55:36 57° ESE 19:00:30 10° NE
ISS -3.2 18:53:31 10° WSW 18:56:09 46° SSW 18:56:09 46° SSW
USA 238 DEB 4.1 18:50:47 10° NW 18:57:54 66° SW 19:02:30 25° SSE
USA 238 4.1 18:50:53 10° NW 18:58:01 67° SW 19:02:35 25° SSE
COSMOS 2406 3.6 18:54:07 10° NNW 18:59:36 47° NE 19:01:06 38° E
Cosmos 1733 4.1 19:01:23 36° NE 19:01:23 36° NE 19:03:57 10° NNE
CZ-2C R/B 3.7 18:56:14 10° NNE 19:00:37 53° E 19:00:45 53° ESE
Cosmos 2279 Rocket 4.5 19:00:02 36° ESE 19:00:43 37° E 19:06:23 10° NNE
Cosmos 1892 Rocket 4.1 18:56:38 10° N 19:00:29 39° ENE 19:00:29 39° ENE
Meteor 1-24 Rocket 3.6 18:57:41 10° N 19:03:09 65° ENE 19:04:56 42° SE
SPOT 1/Viking Rocket 4.2 19:02:43 35° ENE 19:03:13 36° ENE 19:07:55 10° N
CZ-2C R/B 2.9 18:58:59 10° N 19:04:29 73° WNW 19:10:04 10° SSW
Cosmos 1269 Rocket 4.0 19:00:55 10° NNW 19:06:14 70° ENE 19:07:34 49° SE
SL-14 R/B 3.5 19:04:21 10° N 19:07:48 55° NE 19:07:48 55° NE
Spot 2 Rocket 3.8 19:10:54 44° E 19:11:15 45° ENE 19:16:04 10° N
MetOp-B 4.0 19:20:20 58° SE 19:21:20 74° ENE 19:26:42 10° NNW
Cosmos 2278 Rocket 4.4 19:26:08 11° NE 19:26:08 11° NE 19:26:25 10° NE
Cosmos 1844 3.6 19:16:21 10° SSW 19:22:03 87° ESE 19:27:44 10° NNE
Terra 3.4 19:23:42 22° NE 19:23:42 22° NE 19:26:39 10° N
Cosmos 1766 3.4 19:23:36 68° NNW 19:23:36 68° NNW 19:27:10 10° N
Cosmos 2263 Rocket 4.3 19:20:13 10° W 19:24:49 25° NW 19:29:27 10° NNE
Cosmos 1844 Rocket 2.9 19:25:17 10° SW 19:30:50 69° WNW 19:36:27 10° NNE
Lacrosse 4 Rocket 2.9 19:27:30 10° NNW 19:30:19 26° NNE 19:30:19 26° NNE
Okean 1-7 Rocket 4.0 19:27:03 10° N 19:30:52 53° NE 19:30:52 53° NE
SPOT 3 Rocket 4.2 19:32:57 31° SSW 19:35:05 49° W 19:40:07 10° NNW
Cosmos 2251 Rocket 4.1 19:34:31 10° NNW 19:39:24 43° NE 19:39:24 43° NE
USA 234 3.1 19:37:13 28° ENE 19:40:55 70° SE 19:47:27 10° SW
IGS 5A 4.1 19:44:06 52° NNW 19:44:06 52° NNW 19:47:18 10° NNW
Resurs 01 Rocket 2.3 19:42:54 46° WSW 19:43:23 48° W 19:47:43 10° NNW
Cosmos 2266 Rocket 4.2 19:39:19 10° N 19:44:59 50° ENE 19:44:59 50° ENE
SPOT 5 3.6 19:49:28 47° NE 19:49:28 47° NE 19:53:53 10° N
Lacrosse 5 rocket 2.7 19:45:12 10° WNW 19:49:19 36° N 19:49:28 36° NNE
Cosmos 1833 Rocket 2.6 19:45:45 10° NNW 19:51:24 78° NE 19:51:24 78° NE
OBJECT-B 3.6 19:52:33 15° W 19:52:40 15° W 19:54:40 10° NW
Cosmos 1655 Rocket 3.8 19:50:10 10° N 19:56:28 76° E 19:56:42 75° ESE
Cosmos 1626 3.9 19:53:26 10° NNW 19:56:03 30° WNW 19:56:03 30° WNW
ARIANE 5 R/B 3.4 20:01:02 48° WNW 20:01:02 48° WNW 20:04:37 10° NNW
Cosmos 1634 Rocket 4.5 19:59:03 24° SW 20:02:48 57° WNW 20:08:55 10° N
BREEZE-M TANK 4.5 20:01:52 10° WSW 20:04:37 24° WSW 20:04:37 24° WSW
Landsat 7 4.5 20:09:07 53° WNW 20:09:07 53° WNW 20:13:15 10° NNW
ERS-1 Rocket 3.6 20:17:27 53° NNW 20:17:27 53° NNW 20:21:19 10° NNW
ATLAS 2AS CENTAUR R/B 2.9 20:21:37 10° SW 20:29:37 90° ESE 20:37:31 10° NE
Cosmos 2098 Rocket 4.2 20:22:35 10° NNW 20:29:45 69° W 20:30:00 68° WSW
Cosmos 2082 Rocket 2.7 20:27:49 10° NNW 20:32:16 57° NNW 20:32:16 57° NNW
CENTAUR R/B 4.3 20:29:53 10° NW 20:36:57 33° WSW 20:39:10 29° SW
COSMOS 2406 4.4 20:38:40 10° NW 20:43:10 35° W 20:43:10 35° W
ATLAS 3B R/B 3.0 20:37:56 10° NW 20:44:10 59° WSW 20:44:10 59° WSW
Terra 3.6 21:02:36 29° NW 21:02:36 29° NW 21:05:03 10° NNW
Cosmos 2278 Rocket 3.6 21:07:57 33° NNE 21:07:57 33° NNE 21:11:08 10° NNE
Lacrosse 4 Rocket 4.3 21:05:59 10° NW 21:06:37 14° NW 21:06:37 14° NW
USA 234 3.7 21:17:29 10° ENE 21:24:44 57° NW 21:30:21 10° W
Lacrosse 5 rocket 4.4 21:24:31 10° WNW 21:25:05 13° NW 21:25:05 13° NW
CZ-4C R/B 4.4 21:49:08 19° NE 21:49:08 19° NE 21:50:56 10° NE
Cosmos 1943 Rocket 4.3 22:16:55 21° NNE 22:16:55 21° NNE 22:18:39 10° NNE
ATLAS 2AS CENTAUR R/B 4.1 22:14:06 10° W 22:21:31 40° NNW 22:28:43 10° NE
Cosmos 2297 Rocket 4.4 22:26:41 10° N 22:30:38 19° NE 22:31:23 18° NE
COSMOS 2455 4.3 22:39:35 33° N 22:39:35 33° N 22:43:31 10° NNE
Cosmos 2369 Rocket 4.1 22:44:15 24° NNE 22:44:15 24° NNE 22:46:24 10° NNE
NOSS 3-1 (C) 4.5 22:38:59 10° NW 22:44:17 53° NNW 22:44:17 53° NNW
Cosmos 2278 Rocket 4.5 22:49:46 17° NW 22:50:47 18° NNW 22:54:33 10° N
SL-16 R/B 4.0 22:58:38 29° NE 22:58:38 29° NE 23:03:32 10° N
USA 234 4.0 23:00:11 10° ENE 23:12:13 12° WNW 23:12:43 10° WNW
Cosmos 2227 Rocket 3.8 23:23:33 10° NNW 23:27:48 30° NNE 23:27:48 30° NNE
CZ-4C R/B 3.8 23:34:17 33° NNW 23:34:17 33° NNW 23:39:59 10° NE
